Wind_Speed
10 11 11 11 12 12 13 14 14 14 14 14 14 14 13 13 13 13 14 14 14 15 15 15 16 17 18 18 19 19 19 20 20 21 22 22 22 23 23 23 24 24 25
12 12 12 13 13 14 14 15 15 15 15 14 14 14 14 14 14 14 14 15 15 16 16 17 17 18 18 18 18 19 19 20 20 21 22 22 22 23 23 23 24 24 24
14 14 14 14 15 15 16 16 16 16 15 14 14 14 14 15 15 15 16 16 17 17 17 18 18 18 18 18 19 20 20 20 20 20 21 22 22 23 23 23 23 23 23
15 16 16 16 16 17 17 17 17 17 17 16 16 15 15 16 16 17 17 18 18 18 18 19 19 19 19 20 20 20 21 21 21 20 21 21 21 22 21 21 22 22 22
17 17 17 17 17 18 18 18 17 18 18 19 18 17 17 17 18 18 18 18 19 19 20 20 20 20 20 20 21 21 21 21 21 21 21 21 21 21 21 21 21 21 22
17 17 18 18 18 18 19 20 19 19 20 18 18 18 18 19 19 19 19 19 20 20 20 20 20 20 21 21 21 22 22 22 21 21 21 21 21 21 21 21 21 21 22
19 19 19 20 20 20 20 20 20 20 20 19 19 19 20 20 20 20 20 20 21 21 21 21 21 21 21 21 21 21 21 21 21 21 21 21 21 21 21 21 22 22 23
21 21 21 22 22 22 22 21 22 22 21 21 21 21 21 21 20 20 20 20 20 21 21 21 21 22 23 23 22 22 22 21 21 22 22 22 22 21 21 21 22 23 23
23 23 23 24 24 24 23 23 23 23 23 22 22 22 23 23 22 22 21 22 22 22 22 23 23 23 23 23 23 23 23 23 22 22 22 22 22 22 22 22 22 23 23
24 24 25 25 25 25 25 25 25 24 24 23 23 22 22 23 23 23 23 24 24 24 24 25 25 25 25 25 25 24 23 23 23 23 22 22 23 23 23 23 23 23 24
25 26 25 25 26 26 27 26 26 26 25 24 24 24 24 24 24 24 25 26 26 26 26 27 26 26 26 26 25 25 25 24 24 24 23 23 23 23 23 24 24 25 25
27 28 27 27 28 28 29 28 27 26 26 25 25 25 25 26 26 26 26 27 27 28 28 28 28 28 28 27 26 26 26 25 25 25 24 24 24 24 24 25 25 25 25
28 28 28 29 30 30 30 29 28 27 26 26 25 26 26 27 27 27 27 27 28 28 28 28 28 28 28 28 28 27 26 26 26 25 24 24 25 25 25 25 25 25 25
29 29 30 30 30 31 31 31 30 29 27 27 27 28 28 28 28 28 28 28 29 29 29 29 29 29 29 28 27 27 26 26 26 26 25 25 25 25 25 25 26 26 27
29 29 30 30 31 31 32 31 31 31 30 29 29 29 30 30 30 30 30 30 30 30 30 30 29 29 29 29 28 28 27 27 26 26 25 25 25 26 26 26 27 27 27
31 31 30 31 32 32 32 32 32 31 30 30 30 31 31 31 31 31 31 31 31 31 31 31 30 29 29 28 28 27 26 26 26 26 26 26 27 27 27 27 28 28 28
32 32 32 32 33 33 33 32 32 31 31 32 32 32 31 31 32 32 32 32 32 32 32 31 30 30 29 28 27 27 27 27 27 28 28 28 28 28 28 29 29 28 28
32 32 32 33 33 33 32 32 31 32 32 33 32 32 32 32 32 32 32 32 31 31 32 31 30 29 29 29 28 28 28 28 28 28 29 29 28 28 29 29 29 29 29
33 33 33 33 33 33 32 32 31 32 32 32 32 32 32 32 31 32 32 31 30 31 31 30 30 29 29 29 28 28 28 28 29 29 29 29 29 29 29 29 29 29 29
34 34 34 34 33 32 32 32 32 32 32 32 32 33 32 32 32 31 31 31 31 31 30 30 30 29 29 28 28 28 28 29 29 29 29 29 29 29 30 30 29 29 28
33 33 33 33 33 32 32 32 33 33 33 33 33 33 33 31 31 31 31 31 32 31 31 31 30 29 29 29 29 29 29 29 29 29 28 29 29 30 30 29 28 28 28
33 32 31 32 32 32 32 33 33 34 34 34 34 33 32 32 31 31 32 32 31 31 31 31 31 30 30 30 29 29 29 29 29 28 29 30 30 30 30 28 27 28 28
32 32 32 32 32 32 32 33 33 33 34 34 34 33 32 32 32 32 32 32 32 32 32 31 31 31 31 30 30 30 29 29 29 29 29 30 30 30 29 29 28 28 28
32 32 32 32 33 33 33 34 34 34 34 33 33 33 32 33 33 33 32 32 32 31 31 31 30 30 30 29 29 29 29 29 29 29 29 30 30 31 31 30 30 29 29
31 31 31 32 33 33 33 34 34 35 34 34 34 34 33 33 33 32 31 31 30 30 30 30 30 29 28 29 29 29 29 28 28 29 29 30 30 30 31 32 31 30 29
29 30 31 32 32 32 33 33 33 33 33 33 33 33 32 32 32 31 31 31 30 31 30 29 28 28 29 29 29 29 29 29 29 29 30 30 30 30 31 31 30 29 29
Wind_Direction
313 317 318 318 316 318 315 314 315 315 313 311 309 306 302 301 298 295 295 296 295 294 295 293 292 291 288 288 288 287 286 285 284 284 283 284 284 284 282 280 279 279 278
305 310 313 314 316 315 312 310 311 311 310 308 306 304 302 301 297 293 293 294 294 295 295 295 294 293 292 291 291 291 290 288 286 285 284 284 284 285 284 283 281 280 280
301 305 309 311 312 313 309 306 306 306 307 307 305 303 301 299 295 292 293 293 293 294 296 297 295 293 292 292 291 290 291 290 288 288 286 286 285 286 285 283 282 281 280
295 299 303 306 308 311 310 305 304 305 302 304 303 300 300 299 296 293 292 293 293 293 295 296 295 294 291 291 291 291 292 291 290 291 290 290 289 289 287 285 283 281 280
291 294 299 304 306 308 310 307 305 303 301 301 298 297 299 300 298 295 293 293 293 294 294 294 294 294 292 291 290 291 292 292 292 293 293 294 294 294 292 290 287 285 284
292 291 295 299 301 304 305 306 302 298 301 300 298 297 296 296 296 294 293 294 295 295 295 294 292 293 295 294 293 293 292 291 291 292 293 294 295 294 293 292 291 288 286
291 290 291 293 296 299 301 303 302 302 302 299 299 297 295 294 295 294 293 293 294 295 295 295 293 294 294 296 295 294 293 291 290 292 294 294 295 293 292 291 290 290 288
288 286 286 289 292 294 296 298 298 298 298 298 296 294 293 292 292 294 296 296 296 294 295 296 295 294 294 294 294 293 293 292 292 292 293 293 292 293 292 292 291 291 289
287 286 286 287 289 290 291 293 295 295 295 295 294 294 292 292 291 292 292 296 296 295 295 295 295 295 295 295 293 292 291 290 290 290 289 289 290 291 292 292 292 291 290
285 285 285 287 288 288 289 289 292 292 291 291 293 294 294 294 292 292 291 295 295 294 294 293 293 291 292 291 290 290 290 289 289 290 290 290 290 290 291 292 291 292 291
283 283 283 284 285 287 288 289 290 290 289 289 290 292 294 295 294 292 292 294 294 294 293 292 291 289 289 288 287 288 288 287 287 289 289 290 290 290 291 292 291 292 291
283 282 283 283 283 285 288 289 290 289 287 288 290 291 293 295 294 293 293 293 293 293 293 292 291 289 288 287 285 286 286 286 287 288 287 288 289 291 292 292 292 292 291
281 282 284 283 281 284 287 289 290 288 286 286 289 291 292 293 294 293 294 293 292 293 293 293 291 289 288 286 285 285 285 284 285 286 286 288 289 291 292 293 292 291 292
283 282 282 283 285 285 286 287 287 287 285 284 287 288 290 292 295 294 292 291 292 292 292 293 292 290 287 286 284 284 284 283 284 284 286 288 289 290 292 293 293 293 294
281 282 283 285 286 287 285 285 287 287 287 285 286 288 291 292 292 292 291 289 290 291 290 290 290 289 286 285 285 284 283 283 283 285 285 287 288 290 291 291 293 295 296
281 283 282 283 285 286 287 286 287 287 285 285 286 288 290 291 291 291 290 289 288 288 288 288 288 288 288 286 285 284 284 284 284 285 285 286 289 290 290 291 292 295 297
282 283 282 284 284 285 286 285 284 284 285 286 287 288 289 289 289 290 290 289 288 287 287 286 286 287 287 285 284 284 284 284 284 284 285 287 288 290 291 292 293 295 298
280 282 281 282 285 286 286 286 285 285 285 286 286 287 287 287 288 289 289 288 287 287 287 286 285 285 285 284 283 283 283 284 284 284 285 286 287 288 291 292 293 295 298
277 279 281 283 284 285 286 287 288 288 287 287 287 288 288 286 286 287 288 288 288 287 287 286 285 284 284 284 283 283 282 283 283 284 284 284 286 287 289 291 292 294 296
274 276 279 281 282 283 285 286 287 287 287 288 288 288 288 287 286 286 287 287 286 286 285 285 284 283 283 283 282 281 281 282 282 282 282 284 285 286 288 289 290 292 295
275 276 277 278 280 282 284 286 286 286 287 289 289 289 286 286 287 287 286 285 284 284 284 283 282 281 282 282 281 280 280 281 282 282 282 283 285 286 287 287 289 291 294
274 276 277 279 280 282 284 286 286 287 288 288 288 289 288 286 286 286 286 284 284 283 284 283 281 280 281 283 281 280 280 280 281 280 281 282 283 283 284 285 288 291 293
274 275 277 279 281 283 284 286 287 287 289 290 289 288 287 286 286 286 285 284 283 282 282 282 282 280 280 280 279 279 279 278 278 278 280 282 282 284 285 286 287 289 291
275 275 277 280 282 283 285 286 287 287 287 288 287 287 286 285 286 286 286 284 283 282 281 280 279 280 280 278 278 278 278 275 275 278 280 282 282 283 284 286 287 287 288
276 277 278 280 282 284 285 286 287 287 288 287 287 286 285 285 285 285 285 284 282 281 280 279 279 279 279 278 278 278 278 277 278 280 282 283 282 282 283 284 285 285 286
276 278 280 281 282 283 284 285 286 287 287 287 287 286 285 285 284 284 284 284 282 283 282 281 279 278 279 279 279 278 279 280 281 281 282 281 281 281 282 283 282 281 283
Height
5891 5889 5887 5885 5883 5880 5879 5876 5875 5873 5871 5869 5867 5866 5864 5862 5861 5860 5858 5857 5856 5854 5853 5852 5850 5849 5848 5846 5845 5844 5842 5841 5840 5839 5837 5835 5834 5833 5831 5830 5829 5828 5827
5888 5887 5885 5883 5880 5878 5875 5873 5871 5870 5868 5866 5864 5862 5861 5859 5858 5856 5855 5854 5852 5851 5849 5848 5846 5845 5843 5842 5840 5839 5837 5836 5834 5833 5831 5830 5828 5826 5825 5824 5823 5822 5821
5885 5884 5882 5880 5878 5875 5872 5870 5868 5866 5864 5862 5861 5859 5857 5855 5854 5852 5851 5850 5848 5847 5845 5843 5842 5840 5839 5837 5835 5834 5832 5830 5829 5827 5825 5824 5822 5820 5819 5817 5816 5815 5814
5882 5880 5879 5877 5874 5872 5869 5866 5864 5863 5861 5859 5857 5855 5853 5851 5850 5848 5847 5845 5844 5842 5840 5839 5837 5835 5834 5832 5830 5829 5827 5825 5823 5821 5820 5818 5816 5814 5812 5811 5810 5809 5808
5878 5876 5875 5873 5871 5868 5865 5863 5860 5859 5857 5855 5853 5851 5849 5848 5846 5844 5842 5841 5839 5837 5835 5834 5832 5830 5828 5827 5825 5823 5821 5819 5817 5816 5814 5812 5810 5809 5807 5805 5804 5802 5801
5873 5872 5870 5869 5867 5864 5862 5859 5856 5855 5852 5850 5849 5847 5845 5843 5842 5840 5838 5836 5834 5832 5830 5828 5826 5824 5823 5821 5819 5817 5815 5813 5812 5810 5808 5807 5805 5803 5801 5799 5798 5796 5795
5868 5867 5866 5864 5862 5860 5858 5855 5853 5851 5849 5847 5845 5843 5841 5839 5837 5835 5832 5831 5829 5827 5825 5823 5821 5819 5817 5815 5813 5811 5809 5807 5806 5804 5802 5800 5799 5797 5795 5794 5792 5790 5789
5863 5861 5860 5859 5857 5855 5852 5850 5848 5846 5844 5841 5839 5837 5835 5833 5831 5829 5827 5825 5823 5821 5819 5817 5815 5813 5811 5809 5807 5805 5803 5801 5799 5798 5796 5794 5793 5791 5789 5787 5786 5784 5782
5857 5855 5854 5853 5851 5849 5847 5845 5842 5840 5838 5836 5833 5831 5829 5828 5825 5823 5821 5819 5817 5815 5813 5811 5809 5807 5805 5803 5801 5799 5797 5795 5793 5791 5789 5788 5786 5784 5783 5781 5779 5778 5776
5850 5849 5847 5846 5844 5842 5840 5838 5836 5834 5832 5830 5828 5826 5824 5822 5819 5817 5815 5813 5811 5809 5807 5805 5803 5801 5799 5797 5795 5793 5791 5789 5787 5785 5783 5781 5779 5778 5776 5774 5773 5771 5769
5843 5841 5840 5838 5837 5836 5834 5832 5830 5828 5825 5824 5822 5820 5817 5815 5813 5811 5809 5806 5804 5802 5800 5798 5796 5794 5792 5790 5788 5786 5784 5782 5780 5778 5776 5774 5773 5771 5769 5767 5765 5764 5762
5835 5834 5832 5831 5830 5829 5827 5825 5822 5820 5818 5816 5814 5813 5810 5808 5806 5803 5801 5799 5796 5794 5792 5790 5788 5786 5784 5782 5780 5778 5777 5775 5773 5771 5769 5767 5766 5764 5762 5760 5758 5756 5754
5827 5826 5824 5823 5822 5820 5819 5817 5815 5812 5810 5809 5807 5805 5803 5801 5798 5795 5793 5791 5788 5786 5784 5782 5780 5778 5776 5774 5772 5771 5769 5767 5765 5764 5762 5760 5759 5757 5754 5752 5750 5748 5746
5819 5818 5816 5815 5813 5812 5810 5808 5807 5805 5803 5801 5799 5797 5795 5792 5790 5787 5785 5783 5780 5778 5776 5774 5772 5769 5768 5766 5764 5763 5761 5759 5758 5756 5754 5753 5751 5749 5747 5745 5743 5741 5738
5810 5809 5807 5806 5805 5803 5801 5799 5798 5797 5794 5793 5791 5789 5786 5784 5782 5780 5777 5775 5772 5770 5767 5765 5763 5761 5759 5757 5756 5754 5753 5751 5750 5748 5747 5745 5743 5741 5740 5738 5735 5733 5731
5801 5800 5799 5797 5796 5794 5792 5791 5789 5788 5786 5784 5782 5780 5777 5775 5773 5771 5768 5766 5763 5761 5758 5756 5755 5753 5751 5749 5747 5746 5745 5743 5742 5741 5739 5738 5736 5734 5732 5730 5727 5725 5722
5793 5792 5790 5789 5787 5785 5784 5782 5780 5778 5776 5775 5772 5770 5767 5766 5764 5761 5759 5756 5753 5751 5749 5747 5746 5744 5742 5741 5739 5738 5737 5735 5734 5732 5731 5729 5727 5726 5724 5721 5719 5717 5714
5784 5783 5781 5780 5778 5776 5774 5772 5771 5769 5767 5765 5763 5760 5758 5756 5754 5751 5749 5746 5743 5741 5740 5738 5737 5735 5734 5732 5731 5729 5728 5727 5725 5724 5723 5721 5719 5717 5715 5713 5711 5708 5706
5774 5774 5772 5770 5769 5767 5765 5763 5761 5760 5758 5756 5753 5751 5748 5746 5744 5742 5739 5737 5734 5732 5731 5729 5727 5726 5724 5723 5722 5720 5719 5718 5717 5715 5714 5712 5711 5709 5707 5705 5703 5700 5697
5764 5764 5762 5761 5759 5758 5756 5755 5753 5751 5748 5746 5744 5741 5738 5736 5734 5732 5730 5727 5725 5724 5722 5720 5718 5717 5715 5714 5713 5711 5710 5709 5707 5706 5705 5703 5702 5700 5698 5696 5694 5692 5689
5754 5753 5752 5751 5750 5749 5747 5745 5743 5741 5739 5737 5734 5731 5728 5726 5724 5722 5720 5718 5716 5714 5712 5711 5709 5707 5706 5705 5704 5702 5701 5700 5698 5697 5696 5694 5693 5691 5689 5687 5685 5683 5681
5745 5744 5743 5742 5740 5739 5737 5735 5733 5731 5729 5726 5724 5721 5719 5716 5714 5712 5710 5708 5707 5705 5703 5701 5699 5698 5697 5695 5694 5693 5692 5691 5689 5688 5687 5685 5683 5682 5680 5678 5676 5674 5672
5735 5734 5733 5732 5731 5729 5727 5725 5723 5721 5719 5716 5714 5711 5709 5707 5704 5702 5700 5698 5696 5695 5693 5691 5690 5689 5687 5686 5685 5684 5682 5681 5680 5679 5677 5676 5674 5672 5671 5669 5667 5665 5663
5725 5724 5723 5722 5721 5719 5717 5715 5713 5711 5709 5706 5704 5701 5699 5697 5695 5692 5690 5688 5686 5685 5683 5681 5680 5678 5677 5676 5675 5674 5673 5671 5670 5669 5667 5666 5664 5663 5661 5659 5657 5656 5654
5715 5715 5714 5713 5711 5709 5707 5705 5703 5700 5698 5696 5693 5691 5688 5686 5684 5682 5679 5678 5676 5674 5673 5672 5670 5669 5668 5667 5666 5664 5663 5662 5661 5659 5657 5656 5654 5653 5651 5649 5647 5646 5644
5706 5705 5704 5703 5701 5699 5697 5694 5692 5690 5687 5685 5682 5679 5677 5675 5673 5671 5669 5667 5666 5664 5663 5662 5661 5659 5658 5657 5656 5655 5653 5652 5651 5649 5647 5646 5644 5643 5641 5639 5638 5635 5634